Flag for Germany Weather past 2 weeks in Kamp-Lintfort, North Rhine-Westphalia, Germany

Now
50 °F

Overcast.


Feels Like: 49 °F
Forecast: 50 / 61 °F
Wind: 3 mph from Southeast

Location: Duesseldorf

Current Time: Sep 24, 2014 at 2:59:21 AM

Latest Report: Sep 24, 2014 at 2:00 AM


Visibility: 22 mi

Pressure: 30.04 "Hg

Humidity: 82%

Dew point: 45 °F

Location of Kamp-LintfortLocation

Historic Weather in Kamp-Lintfort — Graph

°F

Kamp-Lintfort temperature yesterday

Maximum temperature yesterday: 61 °F (at 3:00 PM)
Minimum temperature yesterday: 43 °F (at 5:00 AM)
Average temperature yesterday: 52 °F

Past Weeks' High & Low Weather Summary

 TemperatureHumidityPressure
High76 °F (Sep 17, 5:00 PM)95% (Sep 9, 6:00 AM)30.25 "Hg (Sep 9, 6:00 AM)
Low43 °F (Sep 23, 5:00 AM)48% (Sep 17, 6:00 PM)29.83 "Hg (Sep 18, 8:00 PM)
Average61 °F78%30.05 "Hg
* Reported Sep 9 2:00 AM — Sep 24 2:00 AM, Kamp-Lintfort, Weather by CustomWeather, © 2014

Note: Actual official high and low records may vary slightly from our data, if they occured in-between our weather recording intervals... More about our weather records

Advertising

Kamp-Lintfort weather history for previous 24 hours

 ConditionsComfort  
Time TempWeatherWind HumidityBarometerVisibility
2:00 AM
Sep 24
50 °FOvercast.3 mph82%30.04 "Hg22 mi
1:00 AM51 °FOvercast.3 mph79%30.06 "Hg25 mi
12:00 AM51 °FOvercast.3 mph78%30.06 "Hg25 mi
10:00 PM
Sep 23
52 °FPassing clouds.1 mph78%30.08 "Hg25 mi
9:00 PM52 °FPassing clouds.1 mph76%30.09 "Hg25 mi
8:00 PM52 °FPassing clouds.1 mph75%30.09 "Hg19 mi
7:00 PM60 °FScattered clouds.2 mph56%30.09 "Hg19 mi
6:00 PM61 °FScattered clouds.1 mph52%30.10 "Hg19 mi
4:00 PM60 °FPartly sunny.3 mph50%30.14 "Hg19 mi
3:00 PM61 °FPartly sunny.2 mph56%30.15 "Hg17 mi
2:00 PM60 °FPartly sunny.3 mph50%30.17 "Hg14 mi
1:00 PM60 °FScattered clouds.2 mph62%30.18 "Hg11 mi
12:00 PM58 °FPassing clouds.2 mph65%30.19 "Hg9 mi
11:00 AM54 °FScattered clouds.2 mph74%30.20 "Hg7 mi
10:00 AM52 °FPartly sunny.2 mph82%30.20 "Hg7 mi
9:00 AM50 °FPartly sunny.3 mph85%30.20 "Hg7 mi
8:00 AM48 °FOvercast.2 mph86%30.19 "Hg9 mi
7:00 AM46 °FOvercast.2 mph92%30.19 "Hg1 mi
6:00 AM45 °FPassing clouds.1 mph95%30.18 "Hg11 mi
5:00 AM43 °FFog.1 mph95%30.17 "Hg12 mi
4:00 AM45 °FPassing clouds.2 mph93%30.18 "Hg14 mi
3:00 AM45 °FPassing clouds.2 mph93%30.18 "Hg15 mi
2:00 AM46 °FFog.1 mph92%30.19 "Hg16 mi
Weather by CustomWeather, © 2014

See weather overviewHow to use our weather pages